Location: M�nchen
(48.1404°N, 11.6043°E)
Time: 14:57:08
(UTC+01:00)

ISS - Pass Details

Date: 07 January 2018
Orbit: 402 x 407 km, 51.6° (Epoch: 18 January)

Event Time Altitude Azimuth Distance (km) Brightness Sun altitude
Exits shadow 05:56:17 41° 18° (NNE) 602 -3.0 -20.3°
Drops below altitude 10° 05:59:09 10° 75° (ENE) 1,470 -0.1 -19.8°
Sets 06:01:18 0° 82° (E) 2,331 1.3 -19.5°
